Location: Kumla
(59.1265°N, 15.1401°E)
Time: 16:18:35
(UTC+01:00)

A-11 Canister half - Pass Details

Date: 07 December 2023
Orbit: 1526 x 1682 km, 47.3° (Epoch: 24 February)

Event Time Altitude Azimuth Distance (km) Brightness Sun altitude
Rises 16:25:26 0° 170° (S) 4,917 11.9 -9.1°
Reaches altitude 10° 16:32:12 10° 138° (SE) 3,942 11.0 -9.8°
Maximum altitude 16:34:27 11° 125° (SE) 3,867 10.8 -10.1°
Drops below altitude 10° 16:36:42 10° 112° (ESE) 3,942 10.8 -10.3°
Enters shadow 16:40:07 - 94° (E) 4,319 10.8 -10.7°
Sets 16:43:26 0° 80° (E) 4,917 - -11.1°
